EW3730 Weather Reports


time (UTC)temp
C
wind
direction
speed
KPH
gust
KPH
rain 1hr
cm
rain 24hr
cm
rain mn
cm
humidity
%
barometer
mb
20260504150801 18 162 8.0 20.9 0.00 0.00 0.00 43 1007.6
20260504150255 18 246 8.0 25.7 0.00 0.00 0.00 43 1007.7
20260504141155 16 218 8.0 17.7 0.00 0.00 0.00 44 1007.7
20260504140649 16 281 6.4 17.7 0.00 0.00 0.00 44 1007.8
20260504140143 16 227 6.4 16.1 0.00 0.00 0.00 44 1007.8
20260504130537 13 251 8.0 25.7 0.00 0.00 0.00 47 1008.2
20260504110508 10 245 4.8 14.5 0.00 0.00 0.00 52 1008.3
20260504082000 10 181 3.2 11.3 0.00 0.00 0.00 51 1009.3
20260504081500 10 225 4.8 16.1 0.00 0.00 0.00 51 1009.3
20260504081000 10 154 4.8 16.1 0.00 0.00 0.00 50 1009.2
20260504080506 10 244 4.8 12.9 0.00 0.00 0.00 50 1009.3
20260504080500 10 208 6.4 19.3 0.00 0.00 0.00 50 1009.2
20260504050420 11 214 4.8 16.1 0.00 0.00 0.00 45 1011.2
20260504045920 11 219 6.4 22.5 0.00 0.00 0.00 45 1011.2
20260504045418 11 179 4.8 22.5 0.00 0.00 0.00 45 1011.1
20260504044919 12 227 4.8 16.1 0.00 0.00 0.00 45 1011.2
20260504044416 12 221 6.4 20.9 0.00 0.00 0.00 45 1011.2
20260504043916 12 182 6.4 20.9 0.00 0.00 0.00 44 1011.2
20260504043646 12 217 4.8 16.1 0.00 0.00 0.00 44 1011.2
20260504042916 12 179 4.8 14.5 0.00 0.00 0.00 45 1011.2
20260504042416 11 139 4.8 14.5 0.00 0.00 0.00 45 1011.3
20260504041916 11 110 4.8 14.5 0.00 0.00 0.00 45 1011.3
20260504041416 11 213 4.8 16.1 0.00 0.00 0.00 45 1011.4
20260504040916 11 205 6.4 19.3 0.00 0.00 0.00 45 1011.3
20260504040419 11 182 6.4 19.3 0.00 0.00 0.00 45 1011.6
20260504035918 11 159 4.8 14.5 0.00 0.00 0.00 45 1011.5
20260504035412 11 172 3.2 11.3 0.00 0.00 0.00 45 1011.6
20260504034906 11 182 4.8 14.5 0.00 0.00 0.00 45 1011.6
20260504034400 11 168 4.8 14.5 0.00 0.00 0.00 45 1011.6
20260504033854 11 155 3.2 12.9 0.00 0.00 0.00 45 1011.7
20260504033348 11 170 4.8 16.1 0.00 0.00 0.00 45 1011.8
20260504032842 11 215 4.8 16.1 0.00 0.00 0.00 45 1011.8
20260504032336 11 145 3.2 16.1 0.00 0.00 0.00 45 1011.8
20260504032102 11 257 4.8 16.1 0.00 0.00 0.00 45 1011.8
20260504031324 11 225 6.4 16.1 0.00 0.00 0.00 45 1011.9
20260504030818 11 170 6.4 14.5 0.00 0.00 0.00 45 1011.9
20260504030312 11 267 6.4 14.5 0.00 0.00 0.00 45 1012.0
20260504025806 11 221 4.8 14.5 0.00 0.00 0.00 45 1012.0
20260504025300 11 202 4.8 16.1 0.00 0.00 0.00 45 1012.1
20260504024754 11 221 4.8 16.1 0.00 0.00 0.00 45 1012.1
20260504024248 11 207 4.8 17.7 0.00 0.00 0.00 46 1012.2
20260504023742 11 242 6.4 17.7 0.00 0.00 0.00 46 1012.2
20260504023237 11 225 6.4 19.3 0.00 0.00 0.00 46 1012.3
20260504022730 11 167 6.4 19.3 0.00 0.00 0.00 47 1012.2
20260504022224 11 200 4.8 14.5 0.00 0.00 0.00 48 1012.3
20260504021718 11 190 4.8 24.1 0.00 0.00 0.00 48 1012.2
20260504021212 11 225 6.4 24.1 0.00 0.00 0.00 48 1012.2
20260504020707 11 173 4.8 12.9 0.00 0.00 0.00 49 1012.3
20260504020200 10 217 4.8 12.9 0.00 0.00 0.00 49 1012.3
20260504015924 10 171 4.8 14.5 0.00 0.00 0.00 49 1012.3
20260504015418 10 197 4.8 14.5 0.00 0.00 0.00 49 1012.2
20260504014642 10 182 4.8 17.7 0.00 0.00 0.00 49 1012.2
20260504014136 10 212 3.2 17.7 0.00 0.00 0.00 50 1012.2
20260504013631 10 221 4.8 16.1 0.00 0.00 0.00 50 1012.3
20260504013124 10 188 6.4 16.1 0.00 0.00 0.00 49 1012.3
20260504012618 10 184 6.4 16.1 0.00 0.00 0.00 50 1012.3
20260504012113 10 198 6.4 22.5 0.00 0.00 0.00 50 1012.4
20260504011606 10 178 8.0 22.5 0.00 0.00 0.00 49 1012.4
20260504011100 10 153 6.4 19.3 0.00 0.00 0.00 49 1012.3
20260504010554 10 135 4.8 17.7 0.00 0.00 0.00 49 1012.4
20260504010051 10 264 6.4 17.7 0.00 0.00 0.00 48 1012.5
20260504005551 10 253 6.4 16.1 0.00 0.00 0.00 48 1012.5
20260504005052 10 234 6.4 17.7 0.00 0.00 0.00 47 1012.5
20260504004552 10 156 6.4 20.9 0.00 0.00 0.00 47 1012.4
20260504004052 10 194 4.8 20.9 0.00 0.00 0.00 47 1012.5
20260504003823 10 314 4.8 16.1 0.00 0.00 0.00 47 1012.5
20260504003051 10 205 4.8 14.5 0.00 0.00 0.00 47 1012.5
20260504002552 10 188 4.8 14.5 0.00 0.00 0.00 47 1012.5
20260504002321 10 207 4.8 16.1 0.00 0.00 0.00 47 1012.5
20260504001820 11 159 4.8 16.1 0.00 0.00 0.00 47 1012.5
20260504001321 10 190 4.8 12.9 0.00 0.00 0.00 47 1012.5
20260504000550 10 181 3.2 11.3 0.00 0.00 0.00 48 1012.5
20260504000049 10 191 3.2 14.5 0.00 0.00 0.00 48 1012.5
20260503235550 10 163 3.2 14.5 0.00 0.00 0.00 49 1012.4
20260503235049 10 190 3.2 11.3 0.00 0.00 0.00 49 1012.5
20260503234544 10 216 3.2 11.3 0.00 0.00 0.00 49 1012.5
20260503234042 10 189 3.2 12.9 0.00 0.00 0.00 49 1012.7
20260503233541 10 202 3.2 12.9 0.00 0.00 0.00 49 1012.7
20260503233041 10 267 3.2 9.7 0.00 0.00 0.00 49 1012.9
20260503232541 10 186 4.8 14.5 0.00 0.00 0.00 49 1012.9
20260503232042 10 202 4.8 14.5 0.00 0.00 0.00 48 1012.9
20260503231542 10 271 4.8 12.9 0.00 0.00 0.00 48 1013.0
20260503231042 11 203 4.8 16.1 0.00 0.00 0.00 48 1013.0
20260503230541 11 243 4.8 16.1 0.00 0.00 0.00 48 1013.0
20260503230042 11 223 4.8 12.9 0.00 0.00 0.00 48 1013.1
20260503225539 11 191 6.4 12.9 0.00 0.00 0.00 48 1013.2
20260503225039 11 148 4.8 14.5 0.00 0.00 0.00 48 1013.3
20260503224542 11 190 4.8 14.5 0.00 0.00 0.00 48 1013.5
20260503224042 11 232 6.4 19.3 0.00 0.00 0.00 48 1013.5
20260503223543 11 249 8.0 24.1 0.00 0.00 0.00 48 1014.0
20260503223039 11 250 8.0 24.1 0.00 0.00 0.00 48 1014.1
20260503222540 11 230 9.7 27.4 0.00 0.00 0.00 48 1014.0
20260503222311 11 238 11.3 27.4 0.00 0.00 0.00 48 1014.2
20260503221540 11 228 11.3 29.0 0.00 0.00 0.00 47 1014.3
20260503221040 11 252 11.3 29.0 0.00 0.00 0.00 47 1014.4
20260503220539 11 268 12.9 35.4 0.00 0.00 0.00 46 1014.3
20260503220036 11 309 12.9 35.4 0.00 0.00 0.00 45 1014.3
20260503215536 12 250 12.9 32.2 0.00 0.00 0.00 44 1014.3
20260503215035 12 250 12.9 32.2 0.00 0.00 0.00 44 1014.4
20260503214536 12 227 12.9 32.2 0.00 0.00 0.00 42 1014.4
20260503214036 13 266 11.3 32.2 0.00 0.00 0.00 41 1014.2
20260503213536 13 210 12.9 38.6 0.00 0.00 0.00 39 1014.2
20260503213035 14 246 11.3 38.6 0.00 0.00 0.00 35 1014.0
20260503212535 15 239 6.4 19.3 0.00 0.00 0.00 28 1013.7
20260503212036 15 233 8.0 30.6 0.00 0.00 0.00 29 1013.5
20260503211803 15 314 8.0 30.6 0.00 0.00 0.00 27 1013.7
20260503211302 15 244 8.0 32.2 0.00 0.00 0.00 27 1013.6
20260503210531 15 240 8.0 32.2 0.00 0.00 0.00 26 1013.7
20260503210302 15 277 8.0 25.7 0.00 0.00 0.00 28 1013.7
20260503205803 15 251 8.0 30.6 0.00 0.00 0.00 26 1013.8
20260503205638 15 230 11.3 30.6 0.00 0.00 0.00 26 1013.8
20260503204532 15 250 12.9 29.0 0.00 0.00 0.00 25 1014.0
20260503204302 15 244 12.9 29.0 0.00 0.00 0.00 25 1014.1
20260503203532 15 220 11.3 27.4 0.00 0.00 0.00 24 1013.9
20260503203257 15 248 9.7 27.4 0.00 0.00 0.00 25 1014.1
20260503202525 16 225 11.3 27.4 0.00 0.00 0.00 26 1014.2
20260503202025 16 277 9.7 24.1 0.00 0.00 0.00 26 1014.2
20260503201526 16 240 8.0 22.5 0.00 0.00 0.00 26 1014.2
20260503201026 16 248 9.7 32.2 0.00 0.00 0.00 25 1014.3
20260503200525 16 313 11.3 33.8 0.00 0.00 0.00 25 1014.4
20260503200255 16 240 11.3 33.8 0.00 0.00 0.00 25 1014.4
20260503195754 16 234 9.7 29.0 0.00 0.00 0.00 25 1014.5
20260503195024 16 249 8.0 19.3 0.00 0.00 0.00 25 1014.5
20260503194521 16 306 9.7 35.4 0.00 0.00 0.00 25 1014.5
20260503194020 16 222 11.3 35.4 0.00 0.00 0.00 24 1014.6
20260503193519 16 258 8.0 24.1 0.00 0.00 0.00 23 1014.6
20260503193020 16 355 9.7 22.5 0.00 0.00 0.00 25 1014.6
20260503192520 16 281 11.3 22.5 0.00 0.00 0.00 24 1014.6
20260503192019 16 244 9.7 27.4 0.00 0.00 0.00 24 1014.7
20260503191512 16 190 9.7 27.4 0.00 0.00 0.00 24 1014.8
20260503191006 16 247 12.9 33.8 0.00 0.00 0.00 24 1014.8
20260503190501 16 225 12.9 33.8 0.00 0.00 0.00 23 1014.9
20260503185954 16 242 11.3 30.6 0.00 0.00 0.00 23 1014.8
20260503185453 16 207 11.3 29.0 0.00 0.00 0.00 25 1015.0
20260503184954 16 263 11.3 29.0 0.00 0.00 0.00 25 1015.1
20260503184453 16 198 12.9 30.6 0.00 0.00 0.00 25 1015.3
20260503183953 16 161 14.5 30.6 0.00 0.00 0.00 25 1015.5
20260503183453 16 252 12.9 30.6 0.00 0.00 0.00 24 1015.7
20260503182956 16 243 11.3 29.0 0.00 0.00 0.00 23 1015.6
20260503182453 16 259 11.3 30.6 0.00 0.00 0.00 24 1015.7
20260503181954 16 267 11.3 30.6 0.00 0.00 0.00 24 1015.7
20260503181454 16 240 9.7 29.0 0.00 0.00 0.00 25 1015.8
20260503181223 16 201 11.3 32.2 0.00 0.00 0.00 25 1015.7
20260503180724 16 292 11.3 32.2 0.00 0.00 0.00 24 1015.9
20260503175953 16 246 11.3 30.6 0.00 0.00 0.00 24 1015.9
20260503175453 16 202 9.7 29.0 0.00 0.00 0.00 24 1015.9
20260503174953 15 271 11.3 32.2 0.00 0.00 0.00 28 1016.0
20260503174453 15 265 12.9 32.2 0.00 0.00 0.00 24 1016.3
20260503173952 15 207 9.7 29.0 0.00 0.00 0.00 25 1016.1
20260503173447 15 205 11.3 30.6 0.00 0.00 0.00 26 1016.2
20260503172940 15 296 9.7 30.6 0.00 0.00 0.00 26 1016.3
20260503172435 15 263 11.3 30.6 0.00 0.00 0.00 25 1016.4
20260503171928 15 261 12.9 32.2 0.00 0.00 0.00 26 1016.4
20260503171422 15 245 9.7 32.2 0.00 0.00 0.00 25 1016.3
20260503170917 15 215 9.7 27.4 0.00 0.00 0.00 24 1016.5
20260503170642 15 273 8.0 27.4 0.00 0.00 0.00 25 1016.5
20260503170136 15 233 6.4 20.9 0.00 0.00 0.00 27 1016.5